Below you will find the last 24 hours of weather readings for Cheney KS

Cheney KS Today's Weather Data

Observed at: Cheney, KS

Hour Observerd Temp Pressure Visibility Humidity Dew Point Wind
00:00 Fair 70°F (21.1°C) 101.59 kPa 10 miles 73% 61°F (16.1°C) 3 mph S 173.75°
23:00 Fair 72°F (22.2°C) 101.59 kPa 10 miles 68% 61°F (16.1°C) 4 mph S 173.75°
22:00 Fair 74°F (23.3°C) 101.59 kPa 10 miles 64% 61°F (16.1°C) 3 mph S 173.75°
21:00 Fair 78°F (25.6°C) 101.59 kPa 10 miles 54% 60.1°F (15.6°C) 6 mph S 173.75°
20:00 A Few Clouds 86°F (30°C) 101.59 kPa 10 miles 43% 61°F (16.1°C) 6 mph S 173.75°
19:00 A Few Clouds 89°F (31.7°C) 101.59 kPa 10 miles 41% 62.1°F (16.7°C) 8 mph E 83.75°
18:00 A Few Clouds 91°F (32.8°C) 101.59 kPa 10 miles 35% 60.1°F (15.6°C) 10 mph S 173.75°
17:00 A Few Clouds 91°F (32.8°C) 101.59 kPa 10 miles 35% 60.1°F (15.6°C) 10 mph S 173.75°
16:00 A Few Clouds 91°F (32.8°C) 101.59 kPa 10 miles 31% 55.9°F (13.3°C) 6 mph S 173.75°
15:00 A Few Clouds 91°F (32.8°C) 101.59 kPa 10 miles 31% 55.9°F (13.3°C) 8 mph S 173.75°
14:00 A Few Clouds 89°F (31.7°C) 101.59 kPa 10 miles 39% 61°F (16.1°C) 8 mph S 173.75°
13:00 Partly Cloudy 88°F (31.1°C) 101.59 kPa 10 miles 36% 57.4°F (14.1°C) 8 mph S 173.75°
12:00 A Few Clouds 87°F (30.6°C) 101.59 kPa 10 miles 43% 62.1°F (16.7°C) 3 mph S 173.75°
11:00 A Few Clouds 86°F (30°C) 101.59 kPa 10 miles 42% 60.1°F (15.6°C) 3 mph S 173.75°
10:00 Fair 80°F (26.7°C) 101.59 kPa 10 miles 48% 58.6°F (14.8°C) 4 mph S 173.75°
09:00 A Few Clouds 82°F (27.8°C) 101.59 kPa 10 miles 51% 62.1°F (16.7°C) 4 mph S 173.75°
08:00 A Few Clouds 78°F (25.6°C) 101.59 kPa 10 miles 60% 63°F (17.2°C) 5 mph S 173.75°
07:00 A Few Clouds 72°F (22.2°C) 101.59 kPa 10 miles 68% 61°F (16.1°C) 3 mph NW 308.75°
06:00 Partly Cloudy 61°F (16.1°C) 101.59 kPa 10 miles 90% 57.9°F (14.4°C) 4 mph NW 308.75°
05:00 Fair 68°F (20°C) 101.59 kPa 10 miles 73% 58.6°F (14.8°C) 3 mph SW 218.75°
04:00 A Few Clouds 62°F (16.7°C) 101.59 kPa 10 miles 86% 57.9°F (14.4°C) 3 mph S 173.75°
03:00 A Few Clouds 66°F (18.9°C) 101.59 kPa 10 miles 78% 59°F (15°C) 3 mph E 83.75°
02:00 Fair 74°F (23.3°C) 101.59 kPa 10 miles 60% 59°F (15°C) 3 mph NE 38.75°
01:00 Fair 72°F (22.2°C) 101.59 kPa 10 miles 64% 59°F (15°C) -